COSMOS 2491 DEB, 57570

Orbit data source: Space-Track

COSMOS 2491 DEB, 57570 is space debris in LEO originally from a launch on Wed, 25 Dec 2013 UTC launched from the Plesetsk Missile And Space Complex (PKMTR). Debris objects in space refer to the collection of defunct objects orbiting the Earth. Examples of debris include non-operational satellites, rocket bodies, and fragments generated from explosions, collisions, or faulty payload assembly.

Loading next visibility...
Identifier
57570, 2013-076BH
Orbit
LEO
Country
Flag of CISCIS
Related business
Manufacturer
TsNIIKhM
Mission
Spacecraft
Bus & Motor
Unknown
Mass
Unknown
Launch date (UTC)
2013-12-25 (12 years ago)
Launch vehicle
Unknown
Launch site
Plesetsk Missile And Space Complex (PKMTR)
Object type
Payload
Rocket body
Debris
Shape & HBR
Unknown shape, 0.1 m
Radar Cross Section
Small (<0.1 m²)

Expand to show TLE details & history
Last TLE update: 2 weeks ago

TLE from 2 weeks ago
0 COSMOS 2491 DEB
1 57570U 13076BH  26110.50455578  .00001182  00000-0  72630-2 0  9992
2 57570  82.4580 186.6410 0087919  42.9039 317.8861 12.53429145134615
Epoch: 2026-04-20T12:06Z
TLE epoch observation values (Epoch: 2026-04-20T12:06:33.619Z)
Latitude
-0.00006°
Longitude
156.40718°
Altitude
1,402.109 km
Speed
7.182 km/s
True Right ascension
12h 26m 33s
True Declination
0° 00' 00"
Sunlit
Object was in full shadow at epoch
Visualization orbit readout
Latitude
Unknown
Longitude
Unknown
Altitude
Unknown
Speed
Unknown
Apparent Right ascension
Unknown
Apparent Declination
Unknown
Sunlit
N/A
Visualization observer readout
Local Sidereal Time
19:20:19
Azimuth
Unknown
Elevation
Unknown
Doppler factor
Unknown
Orbital elements
Apogee altitude
1,516.324 km
Perigee altitude
1,378.72 km
Semi-major axis
7,825.659 km
Eccentricity
0.00879
Inclination
82.458°
RAAN
186.641°
Arg. of periapsis
42.9039°
True anomaly
317.20494°
Mean anomaly
317.8861°
Eccentric anomaly
317.54608°
Mean motion
3.13518 °/min
Orbital period
114.83 mins
BSTAR
0.007263
Loading maneuver chart data...
Computing Atmospheric mass density...
Loading historical data...
Loading historical data...
Loading historical data...
Loading historical data...
Loading historical data...
Loading historical data...
Loading historical data...

Documentation

Showing up to 5 results
|